Dewpoint
70 68 66 65 65 64 66 67 67 67 68 68 69 67 67 66 65 66 67 66 68 68 68 68 67 66 65 64 65 65 67 67 67
70 68 66 65 64 65 66 66 66 66 67 67 68 68 66 63 62 62 62 63 63 63 63 63 63 63 62 63 62 63 63 62 62
70 68 67 66 65 65 66 66 66 66 66 66 68 67 65 63 62 61 63 66 63 63 63 62 62 62 62 62 62 62 62 62 62
70 68 67 66 66 66 66 65 65 65 65 65 67 67 65 62 61 61 62 65 63 63 62 61 61 61 61 60 60 60 60 60 60
70 68 68 68 68 67 66 65 65 65 64 65 67 66 64 61 61 61 62 63 62 61 61 60 60 60 59 59 59 59 59 59 59
67 67 68 68 69 67 66 66 66 66 64 65 65 64 61 60 61 62 65 62 61 60 60 59 59 59 58 58 58 58 58 58 58
66 66 67 68 68 67 66 66 66 62 60 61 60 59 60 60 60 61 65 62 60 59 59 58 58 58 58 57 57 57 57 57 57
65 65 65 65 64 64 65 64 62 59 59 58 58 57 58 60 60 61 65 62 60 58 58 58 57 57 56 56 56 56 56 56 56
63 64 64 63 63 62 61 61 60 59 58 56 56 56 57 59 59 60 64 64 60 59 58 57 56 56 55 55 55 55 55 55 55
62 62 62 62 62 61 60 60 60 58 57 57 57 56 56 55 59 59 62 64 63 59 58 57 56 56 55 54 54 54 54 54 53
61 61 61 61 61 60 60 59 59 58 57 57 57 57 56 53 57 59 59 63 64 61 58 58 57 56 55 54 53 53 52 51 51
60 60 60 60 60 60 59 58 58 57 56 56 56 55 54 52 56 58 58 59 62 63 59 58 58 57 56 55 53 51 50 49 48
60 60 60 60 59 59 58 57 57 56 56 55 56 54 50 49 54 57 57 57 58 60 62 61 59 58 57 57 55 52 50 48 47
59 60 59 59 59 58 58 56 56 55 55 56 56 55 51 48 49 55 56 56 57 56 58 61 61 61 58 57 57 56 52 48 45
58 58 58 58 57 57 56 56 55 55 55 55 55 53 51 48 47 49 55 55 55 55 54 54 56 59 60 57 57 56 55 51 47
57 57 56 56 57 57 56 55 55 54 53 52 52 50 49 47 46 46 48 54 54 54 53 53 52 53 59 59 56 56 55 54 50
58 57 55 54 55 55 55 55 53 54 53 52 48 50 51 48 46 45 45 46 52 53 52 52 51 51 50 53 58 57 53 53 51
60 57 56 54 54 54 55 55 54 53 52 50 52 47 48 46 46 43 43 43 45 49 51 51 51 50 49 50 52 52 53 53 54
59 59 58 56 55 54 55 55 55 54 53 52 51 50 49 48 48 44 42 42 41 43 44 46 48 48 47 48 51 53 53 54 55
61 61 60 59 59 58 55 55 55 55 55 54 53 53 49 47 50 51 52 44 43 42 42 43 45 45 46 47 50 52 52 53 53
Lifted_Index
1 2 3 4 5 5 4 4 3 3 3 2 2 3 3 3 2 2 2 2 2 2 2 2 3 3 3 3 3 2 2 1 1
1 2 3 4 5 5 4 4 3 3 3 3 2 3 3 3 3 3 3 3 3 3 3 3 4 4 4 4 4 3 3 3 3
1 2 3 4 4 4 4 4 4 3 3 3 3 3 3 4 4 4 4 4 4 4 4 5 5 5 5 5 5 4 4 4 4
1 2 3 3 3 3 3 3 4 4 4 3 3 3 4 4 5 5 4 4 4 5 5 5 5 5 5 5 5 5 5 5 5
1 1 2 2 2 3 3 3 3 4 4 4 3 4 4 5 5 5 4 4 4 5 5 5 6 6 6 6 6 6 6 6 6
1 1 2 2 2 2 3 3 3 4 5 4 4 4 4 4 5 4 4 4 4 5 5 6 6 6 6 6 6 6 6 6 6
1 1 2 1 2 2 2 3 4 5 5 5 5 4 4 4 4 4 3 4 4 5 5 6 6 6 6 6 6 7 7 7 6
1 1 2 2 2 2 3 3 4 5 5 5 5 5 4 4 4 4 3 3 4 5 5 6 6 6 6 7 7 7 7 7 7
1 1 2 2 2 3 3 4 5 6 6 6 5 5 5 4 4 4 3 3 3 4 5 5 6 6 6 7 7 7 7 7 7
2 2 2 2 2 3 3 4 5 6 6 6 5 5 5 4 4 4 3 3 3 4 4 5 5 6 6 7 7 7 7 8 8
2 2 2 2 2 3 3 4 5 6 6 6 5 5 4 4 4 4 3 3 3 3 4 4 5 5 6 6 7 7 8 8 8
3 3 3 3 3 3 3 4 4 5 6 6 5 4 4 4 4 4 4 3 3 3 3 4 4 4 5 5 6 7 8 9 9
3 3 3 3 3 3 3 4 4 5 5 5 4 3 3 3 3 3 4 4 4 4 3 3 3 3 4 4 5 6 7 8 9
2 2 3 3 3 3 4 4 4 4 4 4 4 3 2 2 2 3 3 3 3 4 4 4 3 3 3 4 4 5 6 8 8
-0 1 1 2 3 3 3 3 3 3 3 3 3 2 2 2 2 2 2 2 3 3 4 4 4 4 4 4 4 4 5 6 7
-1 -0 0 1 2 2 2 3 3 3 3 3 3 2 2 2 2 2 2 2 2 3 3 4 4 4 4 4 4 4 4 5 6
-1 -1 -0 0 1 1 1 1 2 2 2 2 2 2 2 2 2 2 2 2 2 3 3 3 4 4 4 5 5 4 5 5 6
-1 -1 -1 -0 -0 -0 -0 -0 0 1 1 1 2 2 2 2 2 2 2 2 2 2 2 3 3 3 4 5 5 5 5 5 6
-1 -1 -1 -1 -1 -1 -1 -1 -1 -0 -0 0 1 2 2 2 2 2 2 1 1 2 2 2 3 3 4 5 6 6 6 6 6
-1 -1 -1 -1 -1 -1 -1 -2 -1 -1 -0 0 1 1 2 2 2 2 2 1 1 1 2 2 3 3 4 5 6 6 6 6 6